Regional Weather Roundup
Issued by NWS Burlington, VT

Current Version | Previous Version | Text Only | Print | Product List | Glossary On
Versions: 1 2 3 4 5 6 7 8 9 10 11 12 13 14 15 16 17 18 19 20 21 22 23 24 25 26 27 28 29 30 31 32 33 34 35 36 37 38 39 40 41 42 43 44 45 46 47 48 49 50
000
ASUS41 KBTV 160930
RWRBTV
VERMONT REGIONAL WEATHER ROUNDUP
NATIONAL WEATHER SERVICE BURLINGTON VT
400 AM EST MON JAN 16 2017

NOTE: "FAIR" INDICATES FEW OR NO CLOUDS BELOW 12,000 FEET WITH NO
SIGNIFICANT WEATHER AND/OR OBSTRUCTIONS TO VISIBILITY.

* THESE REPORTS ARE NOT UNDER NWS QUALITY CONTROL AND/OR DO NOT
  REPORT WEATHER SUCH AS PRECIPITATION AND FOG.

VTZ001>019-161000-
_____VERMONT_____


CITY           SKY/WX    TMP DP  RH WIND       PRES   REMARKS
BURLINGTON     FAIR      13   8  81 E3        30.38F
MONTPELIER     FAIR       5   3  91 CALM      30.38S
MORRISVILLE    FAIR       6   2  83 CALM      30.37F
ST. JOHNSBURY*   N/A      7   4  87 MISG      30.37F
LYNDONVILLE*   FAIR       5   2  87 CALM      30.35F
MIDDLEBURY*    FAIR      10   2  72 CALM      30.38F
RUTLAND*       FAIR      11   7  84 SE8       30.38F WCI  -1
SPRINGFIELD    FAIR       9   5  84 CALM      30.41S
HIGHGATE*      FAIR      17   9  71 S8        30.35F WCI   6
NEWPORT*       FAIR      11   4  74 SE5       30.33F WCI   3
BENNINGTON     FAIR      12   8  84 CALM      30.38F
SUTTON*          N/A      5 N/A N/A MISG        N/A
ISLAND POND*     N/A     -6 N/A N/A CALM        N/A
GALLUP MILLS*    N/A     -2 N/A N/A MISG        N/A
UNION VILLAGE*   N/A      7 N/A N/A MISG        N/A
MT. MANSFIELD*   N/A     10 N/A N/A W31         N/A  WCI -12

_____LAKE CHAMPLAIN_____


CITY           SKY/WX    TMP DP  RH WIND       PRES   REMARKS
BURTON ISLAND*   N/A     21  14  73 S16         N/A  WCI   7
COLCHESTER RF*   N/A     25  19  80 S18         N/A  WCI  11
DIAMOND ISL*     N/A     18  16  93 S7          N/A  WCI   8

$$

NYZ007-026>031-035-052-083-087-161000-
_____NORTHERN NEW YORK_____


CITY           SKY/WX    TMP DP  RH WIND       PRES   REMARKS
PLATTSBURGH    FAIR       9   6  88 SW3       30.37F
SARANAC LAKE   CLOUDY     9   4  80 CALM      30.26F
MASSENA        FAIR      17  13  84 S6        30.33F WCI   9
OGDENSBURG*    MOCLDY    19  19 100 S5        30.33F WCI  13
POTSDAM*       PTCLDY   N/A N/A N/A S7        30.32F
WATERTOWN      CLOUDY    29  22  75 S6        30.35F WCI  23
FT DRUM        CLOUDY    22  18  83 SE7       30.32F WCI  14
ALBANY         FAIR      16  10  77 CALM      30.44S
GLENS FALLS    FAIR      11   6  81 CALM      30.42F

$$
NHZ002-005-011-161000-
_____NEW HAMPSHIRE_____


CITY           SKY/WX    TMP DP  RH WIND       PRES   REMARKS
LEBANON        FAIR      11   8  88 CALM      30.40S
KEENE          FAIR       9   7  92 CALM      30.42S
MT WASHINGTON  PTCLDY     5 -17  36 W37         N/A  WCI -21
PLYMOUTH       FAIR       6   4  90 CALM      30.40R
WHITEFIELD     FAIR       4  -1  80 CALM      30.35S

$$

_____REGIONAL QUEBEC LOCATIONS_____


CITY           SKY/WX    TMP DP  RH WIND       PRES   REMARKS
MONTREAL       MOCLDY    18  12  79 SW8       30.33F WCI   7
QUEBEC CITY    PTCLDY     3  -4  72 N3        30.33F
SHERBROOKE     CLEAR      5   1  85 CALM      30.32F

_____REGIONAL ONTARIO LOCATIONS_____


CITY           SKY/WX    TMP DP  RH WIND       PRES   REMARKS
OTTAWA         PTCLDY    14  10  85 S6        30.29F WCI   5

______KEY______
VSB  - VISIBILITY IN MILES
WCI  - WIND CHILL INDEX
HX   - HEAT INDEX
$$
NNNN




USA.gov is the U.S. government's official web portal to all federal, state and local government web resources and services.